Regional Weather Roundup
Issued by NWS Charleston, SC

Current Version | Previous Version | Graphics & Text | Print | Product List | Glossary On
Versions: 1 2 3 4 5 6 7 8 9 10 11 12 13 14 15 16 17 18 19 20 21 22 23 24 25 26 27 28 29 30 31 32 33 34 35 36 37 38 39 40 41 42 43 44 45 46 47 48 49 50
000
ASUS42 KCHS 270713
RWRCHS

REGIONAL WEATHER ROUNDUP
NATIONAL WEATHER SERVICE CHARLESTON SC
300 AM EDT SAT AUG 27 2016

NOTE: "FAIR" INDICATES FEW OR NO CLOUDS BELOW 12,000 FEET WITH NO
SIGNIFICANT WEATHER AND/OR OBSTRUCTIONS TO VISIBILITY.

NOT ALL STATIONS ARE QUALITY CONTROLLED. USE DATA WITH CAUTION...
ESPECIALLY DEWPOINT OBSERVATIONS.

SCZ027-030-031-034>040-042>050-270800-
...SOUTHEAST SOUTH CAROLINA...

CITY           SKY/WX    TMP DP  RH WIND       PRES   REMARKS
N CHARLESTON   CLEAR     73  70  90 N3        30.06F
WATERFRONT PRK   N/A     81  73  76 NE7       30.04F
MOUNT PLEASANT FAIR      73  72  94 CALM      30.06F
JOHNS ISLAND   FAIR      75  72  88 CALM      30.06S
PINOPOLIS        N/A     75  73  94 MISG      30.00F
MONCKS CORNER  FAIR      70  70 100 CALM      30.07F
SUMMERVILLE    FAIR      72  72 100 CALM      30.07F
BEAUFORT MCAS  CLEAR     72  70  93 N3        30.06F FOG
BEAUFORT ARPT  FAIR      73  72  94 CALM      30.06R
HILTON HEAD IS CLEAR     72  70  94 CALM      30.06S
WALTERBORO     MOSUNNY   72  72 100 CALM      30.07F
ALLENDALE      FAIR      73  72  94 CALM      30.06F

...SOUTHERN MIDLANDS AND PEE DEE...

CITY           SKY/WX    TMP DP  RH WIND       PRES   REMARKS
GEORGETOWN     FAIR      70  68  94 CALM      30.09R
KINGSTREE      FAIR      70  66  88 CALM      30.08F
ORANGEBURG     CLEAR     74  72  93 CALM      30.08F
BARNWELL       NOT AVBL
AIKEN          FAIR      73  70  88 CALM      30.12F
MANNING        FAIR      70  70 100 CALM      30.08F
COLUMBIA       PTCLDY    80  71  74 CALM      30.08F
SUMTER         PTCLDY    76  71  84 SW2       30.07S
FLORENCE       CLEAR     75  71  87 CALM      30.10S
MYRTLE BEACH   CLEAR     75  64  69 CALM      30.10S
N MYRTLE BEACH CLEAR     73  72  96 NE3       30.08S

$$

GAZ063-065-086>088-099>101-113>116-118-119-134>141-150-270800-
...SOUTHEAST GEORGIA...

CITY           SKY/WX    TMP DP  RH WIND       PRES   REMARKS
SAVANNAH ARPT  CLEAR     73  69  87 NW3       30.05F
HUNTER AAF     CLEAR     72  71  98 CALM      30.02F
FORT STEWART   CLEAR     69  67  93 CALM      30.03S
STATESBORO     CLEAR     71  71  98 CALM      30.07S
SYLVANIA       NOT AVBL
CLAXTON        FAIR      67  67 100 CALM      30.06F FOG

...CSRA...CENTRAL AND FAR SOUTHEAST GEORGIA...

CITY           SKY/WX    TMP DP  RH WIND       PRES   REMARKS
THOMSON        CLEAR     78  74  88 MISG      30.13S
AUGUSTA-BUSH   CLEAR     73  72  96 CALM      30.07F
AUGUSTA-DANIEL CLEAR     79  71  76 SE3       30.09F
SWAINSBORO     FAIR      75  70  83 CALM      30.08S
VIDALIA        CLEAR     72  72 100 CALM      30.07F
EASTMAN        FAIR      71  71 100 CALM      30.09S
HAZLEHURST     FAIR      74  72  93 CALM      30.05F
ALMA           CLEAR     66  65  96 CALM      30.05F
WAYCROSS         N/A     70  70 100 CALM      30.04F
JESUP          FAIR      68  68 100 CALM      30.05F
BAXLEY         FAIR      68  68 100 CALM      30.05F
BRUNSWICK      FOG       68  68 100 CALM      30.04F VSB 1/2
SAINT SIMONS   PTCLDY    74  69  85 CALM      30.03F

$$

SCZ027-028-034-036>038-045-046-048>050-GAZ119-141-270800-
...LAKE AND SUPPLEMENTAL COASTAL OBSERVATIONS...

STATION/POSITION TIME  TEMP    WIND        PRES    WAVE   SWELL
                       AIR SEA DIR/SP/G            HT/PER HT/PER/DIR
                 (UTC) (F)     (DEG/KT/KT) (MB)    (FT/S) (FT/S/D)
WINYAH BAY       NOT AVBL
LAKE MURRAY      0600   82     210/  5/  8 1018.3F
ACE BASIN NERRS  NOT AVBL
FORT PULASKI     0600   81 86   40/  4/  4 1018.1F
SAPELO ISLAND    0600   72      20/  2     1017.0F

$$

ANZ835-935-AMZ111-154-330-350-352-354-370-450-454-472-270800-
...C-MAN AND BUOY OBSERVATIONS...

STATION/POSITION TIME  TEMP    WIND        PRES    WAVE   SWELL
                       AIR SEA DIR/SP/G            HT/PER HT/PER/DIR
                 (UTC) (F)     (DEG/KT/KT) (MB)    (FT/S) (FT/S/D)
BUOY 41004       0650   82 84   60/  8/ 10 1017.3S   3/11   3/120/11
BUOY 41008       0650   82 85   50/  8/ 10 1016.7F   3/11   3/150/11
FOLLY BEACH CMAN 0700   81      50/  7/  8 1017.9F
CAPERS NEARSHORE 0608   81 84  100/  4/  8 1018.0F
FRIPP NEARSHORE  0608   82 86   80/  4/  8 1017.0F


STATION/POSITION TIME  TEMP    WIND        PRES    WAVE   SWELL
                       AIR SEA DIR/SP/G            HT/PER HT/PER/DIR
                 (UTC) (F)     (DEG/KT/KT) (MB)    (FT/S) (FT/S/D)
5E ST. MARYS GA  0601      84                N/A     4/ 7
FRYING PAN BUOY  0600   82 85  100/  6/ 10 1018.1S
BUOY 41025       0650   81 85  190/  6/  6 1018.8S   2/10   2/120/10
CAPE LOOKOUT NC  0700   80     190/  2/  3 1018.5S
BUOY 41002       0650   82 84   60/  8/ 10 1016.9S   4/ 9   5/120/ 9
BUOY 41010       NOT AVBL
ST AUGUSTINE FL  0700   81 83   70/  9/ 10 1016.3F


$$




USA.gov is the U.S. government's official web portal to all federal, state and local government web resources and services.